Location: Croissy-Beaubourg
(48.8283°N, 2.6696°E)
Time: 01:30:14
(UTC+00:00)

USA 215 - Pass Details

Date: 02 June 2022
Orbit: 1099 x 1108 km, 123.0° (Epoch: 10 June)

Event Time Altitude Azimuth Distance (km) Brightness Sun altitude
Rises 02:10:57 0° 63° (ENE) 3,922 7.3 -12.1°
Reaches altitude 10° 02:13:30 10° 58° (ENE) 2,964 6.7 -11.9°
Maximum altitude 02:19:44 50° 346° (NNW) 1,386 4.1 -11.3°
Drops below altitude 10° 02:25:59 10° 274° (W) 2,966 5.2 -10.7°
Sets 02:28:32 0° 269° (W) 3,924 5.8 -10.4°
